TimeCST,TemperatureF,Dew PointF,Humidity,Sea Level PressureIn,VisibilityMPH,Wind Direction,Wind SpeedMPH,Gust SpeedMPH,PrecipitationIn,Events,Conditions,WindDirDegrees,DateUTC
12:53 AM,37.0,10.0,33,29.62,10.0,WSW,11.5,-,N/A,,Clear,240,2014-01-04 06:53:00
1:53 AM,36.0,10.0,34,29.60,10.0,WNW,4.6,-,N/A,,Clear,290,2014-01-04 07:53:00
2:53 AM,42.1,7.0,24,29.59,10.0,West,10.4,-,N/A,,Clear,260,2014-01-04 08:53:00
3:53 AM,39.0,9.0,29,29.64,10.0,West,6.9,-,N/A,,Clear,280,2014-01-04 09:53:00
4:53 AM,43.0,10.0,26,29.66,10.0,North,8.1,-,N/A,,Clear,360,2014-01-04 10:53:00
5:53 AM,42.1,14.0,32,29.73,10.0,North,6.9,-,N/A,,Clear,10,2014-01-04 11:53:00
6:53 AM,36.0,17.1,46,29.77,10.0,North,10.4,-,N/A,,Clear,10,2014-01-04 12:53:00
7:53 AM,35.1,23.0,61,29.80,10.0,North,13.8,-,N/A,,Clear,10,2014-01-04 13:53:00
8:53 AM,35.1,25.0,67,29.85,10.0,North,17.3,-,N/A,,Clear,360,2014-01-04 14:53:00
9:53 AM,37.9,26.1,62,29.87,10.0,NNE,16.1,26.5,N/A,,Clear,20,2014-01-04 15:53:00
10:53 AM,39.9,26.1,58,29.86,10.0,NNE,21.9,-,N/A,,Clear,20,2014-01-04 16:53:00
11:53 AM,41.0,23.0,49,29.85,10.0,NNE,21.9,27.6,N/A,,Clear,20,2014-01-04 17:53:00
12:53 PM,41.0,24.1,51,29.80,10.0,NNE,21.9,-,N/A,,Clear,30,2014-01-04 18:53:00
1:53 PM,39.9,23.0,51,29.79,10.0,NNE,19.6,-,N/A,,Clear,30,2014-01-04 19:53:00
2:23 PM,39.0,24.1,55,29.78,10.0,NE,17.3,27.6,N/A,,Mostly Cloudy,40,2014-01-04 20:23:00
2:53 PM,37.9,24.1,57,29.77,10.0,NNE,16.1,-,N/A,,Overcast,20,2014-01-04 20:53:00
3:53 PM,34.0,24.1,67,29.82,10.0,NNE,18.4,-,N/A,,Overcast,30,2014-01-04 21:53:00
4:53 PM,32.0,24.1,73,29.83,10.0,NE,19.6,26.5,N/A,,Overcast,40,2014-01-04 22:53:00
5:53 PM,30.0,25.0,82,29.88,7.0,NE,15.0,-,N/A,,Overcast,40,2014-01-04 23:53:00
6:25 PM,28.9,25.0,85,29.89,5.0,NE,20.7,27.6,N/A,,Overcast,40,2014-01-05 00:25:00
6:33 PM,28.0,25.0,88,29.90,5.0,NE,19.6,-,N/A,,Overcast,40,2014-01-05 00:33:00
6:40 PM,28.0,25.0,88,29.90,5.0,NNE,17.3,-,N/A,,Overcast,30,2014-01-05 00:40:00
6:53 PM,28.0,24.1,85,29.95,10.0,NNE,24.2,31.1,N/A,,Overcast,30,2014-01-05 00:53:00
7:02 PM,28.0,24.1,85,29.93,9.0,NNE,21.9,-,N/A,,Overcast,20,2014-01-05 01:02:00
7:22 PM,28.0,21.9,78,29.94,10.0,NNE,20.7,-,N/A,,Overcast,30,2014-01-05 01:22:00
7:35 PM,27.0,23.0,85,29.95,2.5,NNE,20.7,29.9,0.00,Snow,Light Snow,20,2014-01-05 01:35:00
7:38 PM,27.0,23.0,85,29.95,1.2,NNE,20.7,27.6,0.00,Snow,Light Snow,20,2014-01-05 01:38:00
7:48 PM,26.6,23.0,86,29.96,0.8,NNE,26.5,33.4,0.00,Snow,Light Snow,20,2014-01-05 01:48:00
7:53 PM,26.1,23.0,88,30.00,0.8,NNE,23.0,33.4,0.00,Snow,Light Snow,20,2014-01-05 01:53:00
8:15 PM,25.0,21.9,88,29.98,1.2,NNE,21.9,-,0.00,Snow,Light Snow,20,2014-01-05 02:15:00
8:45 PM,24.1,19.9,84,29.98,2.0,NNE,20.7,32.2,0.00,Snow,Light Snow,30,2014-01-05 02:45:00
8:51 PM,24.8,19.4,80,29.98,1.8,NNE,25.3,33.4,0.00,Snow,Light Snow,20,2014-01-05 02:51:00
8:53 PM,24.1,19.9,84,30.03,1.8,NNE,21.9,33.4,0.00,Snow,Light Snow,20,2014-01-05 02:53:00
9:18 PM,24.1,19.9,84,30.01,2.5,NNE,20.7,-,0.00,Snow,Light Snow,20,2014-01-05 03:18:00
9:21 PM,24.1,19.9,84,30.01,3.0,North,20.7,-,0.00,Snow,Light Snow,10,2014-01-05 03:21:00
9:32 PM,23.0,19.0,85,30.01,2.5,NNE,20.7,28.8,0.00,Snow,Light Snow,20,2014-01-05 03:32:00
9:42 PM,24.1,19.0,81,30.03,5.0,North,20.7,28.8,0.00,Snow,Light Snow,10,2014-01-05 03:42:00
9:53 PM,23.0,19.0,85,30.05,1.8,North,23.0,-,0.00,Snow,Light Snow,10,2014-01-05 03:53:00
10:00 PM,23.0,19.9,88,30.01,1.2,North,21.9,-,0.00,Snow,Light Snow,10,2014-01-05 04:00:00
10:21 PM,21.9,18.0,85,30.02,0.8,North,24.2,-,0.00,Snow,Light Snow,10,2014-01-05 04:21:00
10:27 PM,21.9,18.0,85,30.02,1.0,North,25.3,32.2,0.00,Snow,Light Snow,10,2014-01-05 04:27:00
10:42 PM,21.9,18.0,85,30.02,2.0,North,24.2,-,0.00,Snow,Light Snow,10,2014-01-05 04:42:00
10:53 PM,21.9,17.1,82,30.08,7.0,NNE,20.7,-,0.00,Snow,Light Snow,20,2014-01-05 04:53:00
11:53 PM,21.0,16.0,81,30.08,10.0,North,13.8,-,0.00,,Overcast,10,2014-01-05 05:53:00